DAL1220 KEYW-KATL

Flight info

Callsign DAL1220
Flight time 1h 30m
Altitude 36000
Route BUFTT1 MATLK Q77 SHRKS DCT LAIRI DCT LARZZ JJEDI3
Aircraft A319/M-V/N

Departure

Time 2026-05-03 22:46
Airport Key West International Airport (KEYW)

Arrival

Time 2026-05-04 00:17
Airport Hartsfield Jackson Atlanta International Airport (KATL)
Time Latitude Longitude Altitude Speed Heading
2026-05-03 22:24 24.55474 -81.75553 16 ft 0 kts 227°
2026-05-03 22:40 24.55479 -81.75572 15 ft 6 kts 310°
2026-05-03 22:40 24.55528 -81.75610 15 ft 7 kts 286°
2026-05-03 22:40 24.55528 -81.75689 15 ft 12 kts 270°
2026-05-03 22:41 24.55528 -81.75777 14 ft 11 kts 269°
2026-05-03 22:41 24.55527 -81.75852 13 ft 9 kts 270°
2026-05-03 22:41 24.55527 -81.75922 11 ft 9 kts 270°
2026-05-03 22:41 24.55527 -81.75992 10 ft 10 kts 269°
2026-05-03 22:42 24.55526 -81.76103 8 ft 17 kts 270°
2026-05-03 22:42 24.55524 -81.76238 8 ft 18 kts 268°
2026-05-03 22:42 24.55521 -81.76375 8 ft 18 kts 269°
2026-05-03 22:42 24.55521 -81.76514 7 ft 12 kts 270°
2026-05-03 22:43 24.55520 -81.76593 8 ft 10 kts 269°
2026-05-03 22:43 24.55526 -81.76630 11 ft 0 kts 296°
2026-05-03 22:45 24.55549 -81.76657 9 ft 8 kts 328°
2026-05-03 22:45 24.55603 -81.76655 9 ft 8 kts 50°
2026-05-03 22:45 24.55604 -81.76648 9 ft 0 kts 83°
2026-05-03 22:45 24.55606 -81.76622 9 ft 25 kts 85°
2026-05-03 22:46 24.55612 -81.76074 10 ft 114 kts 89°
2026-05-03 22:46 24.55621 -81.74975 218 ft 157 kts 87°
2026-05-03 22:46 24.55775 -81.73804 975 ft 154 kts 69°
2026-05-03 22:46 24.56413 -81.72859 1646 ft 158 kts 34°
2026-05-03 22:47 24.57462 -81.72456 2186 ft 167 kts
2026-05-03 22:47 24.58670 -81.72416 2679 ft 181 kts 355°
2026-05-03 22:47 24.60006 -81.72470 2996 ft 204 kts 354°
2026-05-03 22:47 24.61510 -81.72461 3399 ft 227 kts
2026-05-03 22:48 24.63138 -81.72314 3907 ft 245 kts
2026-05-03 22:48 24.64906 -81.72202 4538 ft 262 kts 359°
2026-05-03 22:48 24.66788 -81.72111 4912 ft 276 kts 360°
2026-05-03 22:48 24.68706 -81.72018 4997 ft 278 kts 359°
2026-05-03 22:49 24.70629 -81.71796 5008 ft 280 kts 11°
2026-05-03 22:49 24.72453 -81.71019 5008 ft 283 kts 27°
2026-05-03 22:49 24.74021 -81.69701 5010 ft 286 kts 44°
2026-05-03 22:49 24.75389 -81.68099 5012 ft 287 kts 45°
2026-05-03 22:50 24.76757 -81.66495 5046 ft 285 kts 45°
2026-05-03 22:50 24.78084 -81.64943 5777 ft 285 kts 44°
2026-05-03 22:50 24.79458 -81.63340 6562 ft 289 kts 44°
2026-05-03 22:50 24.80822 -81.61749 7391 ft 291 kts 44°
2026-05-03 22:51 24.82215 -81.60121 8259 ft 292 kts 45°
2026-05-03 22:51 24.83613 -81.58492 9155 ft 293 kts 44°
2026-05-03 22:51 24.85224 -81.57121 10065 ft 286 kts 21°
2026-05-03 22:51 24.87093 -81.56656 10895 ft 276 kts 358°
2026-05-03 22:52 24.89005 -81.56667 11625 ft 278 kts 354°
2026-05-03 22:52 24.90985 -81.56734 12140 ft 289 kts 353°
2026-05-03 22:52 24.93030 -81.56809 12667 ft 300 kts 353°
2026-05-03 22:52 24.95156 -81.56889 13200 ft 311 kts 353°
2026-05-03 22:53 24.97348 -81.56971 13744 ft 321 kts 353°
2026-05-03 22:53 24.99615 -81.57054 14231 ft 330 kts 353°
2026-05-03 22:53 25.01947 -81.57138 14719 ft 339 kts 353°
2026-05-03 22:53 25.04337 -81.57220 15214 ft 347 kts 353°
2026-05-03 22:54 25.06782 -81.57299 15714 ft 355 kts 353°
2026-05-03 22:54 25.09272 -81.57374 16341 ft 358 kts 353°
2026-05-03 22:54 25.11731 -81.57440 17025 ft 359 kts 353°
2026-05-03 22:54 25.14260 -81.57499 17738 ft 359 kts 353°
2026-05-03 22:55 25.16764 -81.57547 18443 ft 359 kts 353°
2026-05-03 22:55 25.19228 -81.57582 19064 ft 358 kts 353°
2026-05-03 22:55 25.21719 -81.57606 19696 ft 358 kts 353°
2026-05-03 22:55 25.24225 -81.57619 20235 ft 361 kts 353°
2026-05-03 22:56 25.26747 -81.57624 20787 ft 363 kts 353°
2026-05-03 22:56 25.29284 -81.57621 21346 ft 364 kts 353°
2026-05-03 22:56 25.31820 -81.57611 21915 ft 366 kts 353°
2026-05-03 22:56 25.34372 -81.57592 22501 ft 366 kts 353°
2026-05-03 22:57 25.36923 -81.57564 23092 ft 367 kts 353°
2026-05-03 22:57 25.39473 -81.57526 23679 ft 367 kts 353°
2026-05-03 22:57 25.42034 -81.57482 24080 ft 370 kts 353°
2026-05-03 22:57 25.44594 -81.57434 24475 ft 373 kts 353°
2026-05-03 22:58 25.47206 -81.57382 24861 ft 378 kts 353°
2026-05-03 22:58 25.49908 -81.57331 24987 ft 391 kts 353°
2026-05-03 22:58 25.52659 -81.57292 25018 ft 406 kts 353°
2026-05-03 22:58 25.55538 -81.57267 25017 ft 421 kts 353°
2026-05-03 22:59 25.58489 -81.57250 25018 ft 426 kts 353°
2026-05-03 22:59 25.61464 -81.57235 25334 ft 427 kts 353°
2026-05-03 22:59 25.64439 -81.57219 25731 ft 430 kts 353°
2026-05-03 22:59 25.67439 -81.57200 26136 ft 432 kts 353°
2026-05-03 23:00 25.70460 -81.57176 26549 ft 434 kts 353°
2026-05-03 23:00 25.73496 -81.57148 26961 ft 436 kts 353°
2026-05-03 23:00 25.76536 -81.57116 27385 ft 438 kts 353°
2026-05-03 23:00 25.79602 -81.57078 27809 ft 440 kts 353°
2026-05-03 23:01 25.82661 -81.57035 28247 ft 441 kts 353°
2026-05-03 23:01 25.85746 -81.56986 28695 ft 442 kts 353°
2026-05-03 23:01 25.88820 -81.56930 29141 ft 443 kts 353°
2026-05-03 23:01 25.91921 -81.56848 29607 ft 446 kts 356°
2026-05-03 23:02 25.95020 -81.56213 30064 ft 458 kts
2026-05-03 23:02 25.98084 -81.55256 30466 ft 459 kts
2026-05-03 23:02 26.01160 -81.54274 30859 ft 459 kts
2026-05-03 23:02 26.04229 -81.53283 31261 ft 459 kts
2026-05-03 23:03 26.07299 -81.52291 31672 ft 459 kts
2026-05-03 23:03 26.10366 -81.51299 32081 ft 459 kts
2026-05-03 23:03 26.12400 -81.50642 32365 ft 459 kts
2026-05-03 23:03 26.15456 -81.49656 32785 ft 458 kts
2026-05-03 23:04 26.19517 -81.48346 33362 ft 457 kts
2026-05-03 23:04 26.22561 -81.47368 33786 ft 455 kts
2026-05-03 23:04 26.25603 -81.46393 34207 ft 453 kts
2026-05-03 23:04 26.27617 -81.45747 34466 ft 452 kts
2026-05-03 23:05 26.30633 -81.44778 34861 ft 449 kts
2026-05-03 23:05 26.33625 -81.43817 35269 ft 447 kts
2026-05-03 23:05 26.36614 -81.42854 35677 ft 444 kts
2026-05-03 23:05 26.39590 -81.41894 35977 ft 444 kts
2026-05-03 23:06 26.42564 -81.40938 36049 ft 450 kts
2026-05-03 23:06 26.48659 -81.38978 36058 ft 456 kts
2026-05-03 23:07 26.54779 -81.36995 36060 ft 457 kts
2026-05-03 23:07 26.60887 -81.35012 36059 ft 458 kts
2026-05-03 23:08 26.67014 -81.33032 36061 ft 459 kts
2026-05-03 23:08 26.73151 -81.31044 36062 ft 459 kts
2026-05-03 23:09 26.79263 -81.29060 36058 ft 460 kts
2026-05-03 23:09 26.85458 -81.27039 36057 ft 461 kts
2026-05-03 23:10 26.91585 -81.25037 36057 ft 461 kts
2026-05-03 23:10 26.97754 -81.23028 36048 ft 462 kts
2026-05-03 23:11 27.03941 -81.21012 36049 ft 463 kts
2026-05-03 23:11 27.10132 -81.18993 36052 ft 464 kts
2026-05-03 23:12 27.16349 -81.16961 36050 ft 465 kts
2026-05-03 23:12 27.22578 -81.14924 36048 ft 466 kts
2026-05-03 23:13 27.28817 -81.12880 36051 ft 467 kts
2026-05-03 23:13 27.35063 -81.10827 36061 ft 468 kts
2026-05-03 23:14 27.41323 -81.08766 36058 ft 469 kts
2026-05-03 23:14 27.47593 -81.06703 36060 ft 470 kts
2026-05-03 23:15 27.53885 -81.04631 36062 ft 471 kts
2026-05-03 23:15 27.60186 -81.02558 36057 ft 472 kts
2026-05-03 23:16 27.66452 -81.00494 36057 ft 473 kts
2026-05-03 23:16 27.72776 -80.98403 36059 ft 474 kts
2026-05-03 23:17 27.79125 -80.97256 36063 ft 449 kts 347°
2026-05-03 23:17 27.82176 -80.97651 36063 ft 434 kts 336°
2026-05-03 23:17 27.85013 -80.98624 36062 ft 419 kts 326°
2026-05-03 23:17 27.87579 -81.00080 36061 ft 406 kts 317°
2026-05-03 23:18 27.89831 -81.01925 36060 ft 395 kts 309°
2026-05-03 23:18 27.94025 -81.05942 36069 ft 396 kts 309°
2026-05-03 23:19 27.98221 -81.09936 36075 ft 397 kts 309°
2026-05-03 23:19 28.02448 -81.13961 36084 ft 399 kts 310°
2026-05-03 23:19 28.04789 -81.15710 36086 ft 414 kts 321°
2026-05-03 23:20 28.07313 -81.17045 36091 ft 420 kts 324°
2026-05-03 23:20 28.12649 -81.19770 36095 ft 420 kts 324°
2026-05-03 23:21 28.17983 -81.22508 36094 ft 420 kts 323°
2026-05-03 23:21 28.23305 -81.25255 36105 ft 421 kts 323°
2026-05-03 23:22 28.31273 -81.29371 36090 ft 421 kts 323°
2026-05-03 23:22 28.36631 -81.32141 36092 ft 421 kts 323°
2026-05-03 23:23 28.41952 -81.34855 36094 ft 421 kts 323°
2026-05-03 23:23 28.47297 -81.37581 36092 ft 421 kts 323°
2026-05-03 23:24 28.52645 -81.40312 36106 ft 421 kts 323°
2026-05-03 23:24 28.57998 -81.43059 36104 ft 421 kts 323°
2026-05-03 23:25 28.63347 -81.45804 36110 ft 422 kts 323°
2026-05-03 23:25 28.68729 -81.48572 36111 ft 430 kts 323°
2026-05-03 23:26 28.74270 -81.51441 36105 ft 444 kts 324°
2026-05-03 23:26 28.79939 -81.54358 36100 ft 448 kts 324°
2026-05-03 23:27 28.85639 -81.57278 36099 ft 449 kts 324°
2026-05-03 23:27 28.91383 -81.60163 36096 ft 457 kts 329°
2026-05-03 23:28 28.94519 -81.61065 36098 ft 476 kts 341°
2026-05-03 23:28 28.97867 -81.61419 36108 ft 482 kts 344°
2026-05-03 23:28 29.04568 -81.62006 36110 ft 483 kts 344°
2026-05-03 23:29 29.11273 -81.62605 36121 ft 483 kts 344°
2026-05-03 23:29 29.17986 -81.63229 36119 ft 484 kts 343°
2026-05-03 23:30 29.24698 -81.63852 36122 ft 484 kts 343°
2026-05-03 23:30 29.31417 -81.64472 36122 ft 484 kts 343°
2026-05-03 23:31 29.38146 -81.65092 36130 ft 485 kts 343°
2026-05-03 23:31 29.44880 -81.65710 36129 ft 485 kts 343°
2026-05-03 23:32 29.51580 -81.66323 36143 ft 485 kts 343°
2026-05-03 23:32 29.58357 -81.66943 36002 ft 486 kts 343°
2026-05-03 23:33 29.61731 -81.67256 35837 ft 486 kts 343°
2026-05-03 23:33 29.65061 -81.67567 35681 ft 486 kts 343°
2026-05-03 23:33 29.68437 -81.67879 35526 ft 487 kts 343°
2026-05-03 23:33 29.71819 -81.68191 35361 ft 487 kts 343°
2026-05-03 23:34 29.75194 -81.68506 35181 ft 487 kts 343°
2026-05-03 23:34 29.78576 -81.68817 35119 ft 486 kts 343°
2026-05-03 23:34 29.85292 -81.69431 35138 ft 487 kts 343°
2026-05-03 23:35 29.92062 -81.70063 35133 ft 487 kts 343°
2026-05-03 23:35 29.98812 -81.70703 35130 ft 487 kts 343°
2026-05-03 23:36 30.05619 -81.71339 35130 ft 486 kts 343°
2026-05-03 23:36 30.11224 -81.71858 35130 ft 486 kts 343°
2026-05-03 23:37 30.19066 -81.72584 35128 ft 486 kts 343°
2026-05-03 23:37 30.24684 -81.73109 35130 ft 486 kts 343°
2026-05-03 23:38 30.31433 -81.73734 35152 ft 487 kts 343°
2026-05-03 23:38 30.38215 -81.74381 35136 ft 490 kts 343°
2026-05-03 23:39 30.45053 -81.75027 35132 ft 490 kts 344°
2026-05-03 23:39 30.51805 -81.75651 35128 ft 489 kts 344°
2026-05-03 23:40 30.58602 -81.76288 35134 ft 488 kts 343°
2026-05-03 23:40 30.61889 -81.76927 35135 ft 471 kts 333°
2026-05-03 23:40 30.64935 -81.78159 35134 ft 454 kts 323°
2026-05-03 23:41 30.70557 -81.81406 35202 ft 441 kts 321°
2026-05-03 23:41 30.76001 -81.84541 35131 ft 434 kts 322°
2026-05-03 23:42 30.81413 -81.87677 35128 ft 433 kts 322°
2026-05-03 23:42 30.86814 -81.90815 35134 ft 433 kts 322°
2026-05-03 23:43 30.92182 -81.93929 35137 ft 433 kts 322°
2026-05-03 23:43 30.97584 -81.97072 35117 ft 433 kts 322°
2026-05-03 23:44 31.02979 -82.00216 35129 ft 433 kts 322°
2026-05-03 23:44 31.08383 -82.03366 35123 ft 434 kts 322°
2026-05-03 23:45 31.13790 -82.06519 35123 ft 434 kts 322°
2026-05-03 23:45 31.19203 -82.09678 35121 ft 434 kts 322°
2026-05-03 23:46 31.24611 -82.12840 35123 ft 435 kts 322°
2026-05-03 23:46 31.30051 -82.16029 35121 ft 435 kts 322°
2026-05-03 23:47 31.35413 -82.19177 35119 ft 435 kts 323°
2026-05-03 23:47 31.40828 -82.22358 35122 ft 435 kts 323°
2026-05-03 23:48 31.46247 -82.25541 35113 ft 435 kts 323°
2026-05-03 23:48 31.51663 -82.28725 35112 ft 435 kts 323°
2026-05-03 23:49 31.57075 -82.31912 35113 ft 435 kts 323°
2026-05-03 23:49 31.62485 -82.35106 35112 ft 435 kts 323°
2026-05-03 23:50 31.66981 -82.37761 35107 ft 435 kts 323°
2026-05-03 23:50 31.73313 -82.41507 35114 ft 435 kts 323°
2026-05-03 23:51 31.78714 -82.44717 35112 ft 435 kts 323°
2026-05-03 23:51 31.84123 -82.47930 35113 ft 435 kts 323°
2026-05-03 23:52 31.89535 -82.51140 35111 ft 436 kts 323°
2026-05-03 23:52 31.94936 -82.54381 35110 ft 433 kts 320°
2026-05-03 23:53 31.97415 -82.56309 35115 ft 421 kts 311°
2026-05-03 23:53 31.99626 -82.58526 35110 ft 417 kts 309°
2026-05-03 23:53 32.04013 -82.63014 35105 ft 417 kts 309°
2026-05-03 23:54 32.08411 -82.67495 35114 ft 418 kts 309°
2026-05-03 23:54 32.12812 -82.71984 35113 ft 418 kts 309°
2026-05-03 23:55 32.17176 -82.76453 35109 ft 417 kts 309°
2026-05-03 23:55 32.21481 -82.80847 35112 ft 403 kts 309°
2026-05-03 23:56 32.23597 -82.83015 34807 ft 406 kts 309°
2026-05-03 23:56 32.25759 -82.85244 34003 ft 409 kts 309°
2026-05-03 23:56 32.27906 -82.87456 33089 ft 409 kts 310°
2026-05-03 23:56 32.30028 -82.89636 32217 ft 409 kts 310°
2026-05-03 23:57 32.32176 -82.91843 31383 ft 410 kts 311°
2026-05-03 23:57 32.34329 -82.94057 30558 ft 411 kts 311°
2026-05-03 23:57 32.36493 -82.96284 29659 ft 413 kts 311°
2026-05-03 23:57 32.38700 -82.98560 28708 ft 416 kts 312°
2026-05-03 23:58 32.40864 -83.00788 27810 ft 418 kts 313°
2026-05-03 23:58 32.43063 -83.03048 26939 ft 420 kts 313°
2026-05-03 23:58 32.45280 -83.05327 26089 ft 423 kts 314°
2026-05-03 23:58 32.47509 -83.07621 25259 ft 425 kts 314°
2026-05-03 23:59 32.49749 -83.09926 24457 ft 427 kts 314°
2026-05-03 23:59 32.51995 -83.12242 23674 ft 430 kts 315°
2026-05-03 23:59 32.54250 -83.14569 22757 ft 432 kts 315°
2026-05-03 23:59 32.56555 -83.16951 21851 ft 434 kts 315°
2026-05-04 00:00 32.58842 -83.19320 20974 ft 437 kts 316°
2026-05-04 00:00 32.61143 -83.21702 20357 ft 439 kts 316°
2026-05-04 00:00 32.63450 -83.24092 20142 ft 441 kts 316°
2026-05-04 00:00 32.65765 -83.26494 20093 ft 442 kts 316°
2026-05-04 00:01 32.68078 -83.28896 20105 ft 443 kts 316°
2026-05-04 00:01 32.70395 -83.31303 20105 ft 443 kts 316°
2026-05-04 00:01 32.72712 -83.33714 20106 ft 442 kts 316°
2026-05-04 00:01 32.75025 -83.36123 20103 ft 442 kts 316°
2026-05-04 00:02 32.77311 -83.38509 20106 ft 442 kts 316°
2026-05-04 00:02 32.79618 -83.40921 20102 ft 442 kts 316°
2026-05-04 00:02 32.81929 -83.43336 20110 ft 442 kts 316°
2026-05-04 00:02 32.84270 -83.45782 20110 ft 442 kts 316°
2026-05-04 00:03 32.86580 -83.48196 20088 ft 442 kts 316°
2026-05-04 00:03 32.88894 -83.50617 19567 ft 443 kts 316°
2026-05-04 00:03 32.91207 -83.53035 18996 ft 443 kts 316°
2026-05-04 00:03 32.93520 -83.55452 18436 ft 441 kts 316°
2026-05-04 00:04 32.95816 -83.57851 17807 ft 437 kts 316°
2026-05-04 00:04 32.98091 -83.60229 17173 ft 433 kts 316°
2026-05-04 00:04 33.00347 -83.62585 16561 ft 429 kts 317°
2026-05-04 00:04 33.02592 -83.64931 15960 ft 426 kts 317°
2026-05-04 00:05 33.04808 -83.67254 15369 ft 422 kts 317°
2026-05-04 00:05 33.07005 -83.69561 14794 ft 419 kts 317°
2026-05-04 00:05 33.09159 -83.71827 14236 ft 416 kts 317°
2026-05-04 00:05 33.11351 -83.74136 13636 ft 413 kts 317°
2026-05-04 00:06 33.13492 -83.76393 13000 ft 409 kts 317°
2026-05-04 00:06 33.15618 -83.78633 12443 ft 406 kts 317°
2026-05-04 00:06 33.17700 -83.80832 12079 ft 403 kts 317°
2026-05-04 00:06 33.19791 -83.83065 11849 ft 402 kts 316°
2026-05-04 00:07 33.21764 -83.85308 11696 ft 401 kts 315°
2026-05-04 00:07 33.23779 -83.87716 11609 ft 400 kts 314°
2026-05-04 00:07 33.25731 -83.90104 11560 ft 400 kts 314°
2026-05-04 00:07 33.27670 -83.92483 11525 ft 400 kts 314°
2026-05-04 00:08 33.29617 -83.94855 11513 ft 400 kts 314°
2026-05-04 00:08 33.31584 -83.97230 11501 ft 400 kts 314°
2026-05-04 00:08 33.33547 -83.99580 11489 ft 400 kts 314°
2026-05-04 00:08 33.35614 -84.01759 11326 ft 393 kts 326°
2026-05-04 00:09 33.38082 -84.02920 10750 ft 374 kts 350°
2026-05-04 00:09 33.39767 -84.03044 10377 ft 361 kts 358°
2026-05-04 00:09 33.42213 -84.03070 9788 ft 343 kts 358°
2026-05-04 00:09 33.44554 -84.03086 9142 ft 329 kts 358°
2026-05-04 00:10 33.46786 -84.03303 8527 ft 315 kts 345°
2026-05-04 00:10 33.48757 -84.04275 7925 ft 303 kts 327°
2026-05-04 00:10 33.50333 -84.05899 7346 ft 302 kts 314°
2026-05-04 00:10 33.51821 -84.07705 6755 ft 304 kts 314°
2026-05-04 00:11 33.53314 -84.09511 6161 ft 305 kts 314°
2026-05-04 00:11 33.54795 -84.11296 5555 ft 305 kts 314°
2026-05-04 00:11 33.56311 -84.13123 4969 ft 305 kts 314°
2026-05-04 00:11 33.57805 -84.14931 4333 ft 302 kts 314°
2026-05-04 00:12 33.59240 -84.16667 4058 ft 280 kts 314°
2026-05-04 00:12 33.60551 -84.18251 4002 ft 252 kts 314°
2026-05-04 00:12 33.61730 -84.19676 4010 ft 228 kts 314°
2026-05-04 00:12 33.62749 -84.21063 4012 ft 218 kts 299°
2026-05-04 00:13 33.63171 -84.22742 4061 ft 211 kts 274°
2026-05-04 00:13 33.63180 -84.24469 4019 ft 197 kts 270°
2026-05-04 00:13 33.63176 -84.26092 3730 ft 194 kts 270°
2026-05-04 00:13 33.63174 -84.27673 3377 ft 183 kts 270°
2026-05-04 00:14 33.63174 -84.29167 3112 ft 173 kts 270°
2026-05-04 00:14 33.63175 -84.30551 2886 ft 156 kts 271°
2026-05-04 00:14 33.63177 -84.31794 2686 ft 150 kts 271°
2026-05-04 00:14 33.63178 -84.33041 2483 ft 146 kts 270°
2026-05-04 00:15 33.63179 -84.34243 2297 ft 145 kts 271°
2026-05-04 00:15 33.63180 -84.35495 2091 ft 145 kts 271°
2026-05-04 00:15 33.63180 -84.36673 1905 ft 145 kts 271°
2026-05-04 00:15 33.63181 -84.37876 1700 ft 144 kts 271°
2026-05-04 00:16 33.63180 -84.39063 1493 ft 144 kts 270°
2026-05-04 00:16 33.63175 -84.40258 1331 ft 142 kts 272°
2026-05-04 00:16 33.63180 -84.41429 1165 ft 140 kts 270°
2026-05-04 00:16 33.63179 -84.42554 1037 ft 125 kts 270°
2026-05-04 00:17 33.63183 -84.43415 1036 ft 77 kts 270°
2026-05-04 00:17 33.63186 -84.43857 1034 ft 38 kts 270°
2026-05-04 00:17 33.63207 -84.44118 1034 ft 26 kts 288°
2026-05-04 00:17 33.63313 -84.44262 1035 ft 22 kts 359°
2026-05-04 00:18 33.63398 -84.44197 1035 ft 13 kts 10°
2026-05-04 00:18 33.63493 -84.44191 1036 ft 13 kts 360°
2026-05-04 00:18 33.63583 -84.44194 1036 ft 13 kts 358°
2026-05-04 00:18 33.63657 -84.44151 1036 ft 13 kts 69°
2026-05-04 00:19 33.63664 -84.44038 1036 ft 14 kts 90°
2026-05-04 00:19 33.63664 -84.43920 1036 ft 15 kts 90°
2026-05-04 00:19 33.63690 -84.43806 1036 ft 15 kts 51°
2026-05-04 00:19 33.63776 -84.43780 1036 ft 14 kts 351°
2026-05-04 00:20 33.63877 -84.43787 1035 ft 14 kts
2026-05-04 00:20 33.63949 -84.43787 1036 ft 11 kts
2026-05-04 00:20 33.64027 -84.43787 1036 ft 13 kts 359°
2026-05-04 00:20 33.64182 -84.43810 1036 ft 11 kts
2026-05-04 00:21 33.64235 -84.43801 1036 ft 9 kts
2026-05-04 00:21 33.64294 -84.43801 1036 ft 5 kts 333°
2026-05-04 00:21 33.64306 -84.43837 1035 ft 4 kts 270°
2026-05-04 00:21 33.64306 -84.43864 1036 ft 1 kts 270°
2026-05-04 00:22 33.64306 -84.43877 1036 ft 0 kts 270°